Location: Novokuznetsk
(53.7500°N, 87.1000°E)
Time: 02:08:55
(UTC+06:00)

ISS - Pass Details

Date: 21 July 2018
Orbit: 402 x 408 km, 51.6° (Epoch: 20 July)

Event Time Altitude Azimuth Distance (km) Brightness Sun altitude
Rises 02:20:54 0° 278° (W) 2,331 -0.2 -11.1°
Reaches altitude 10° 02:23:08 10° 267° (W) 1,470 -1.3 -11.0°
Maximum altitude 02:26:02 29° 205° (SSW) 786 -3.0 -10.8°
Drops below altitude 10° 02:28:56 10° 144° (SE) 1,466 -1.2 -10.5°
Sets 02:31:10 0° 132° (SE) 2,325 -0.1 -10.4°
